sat.trackr.live / text

‹ back to catalog

STARLINK-37017

NORAD 68108 · 2026-044H

PAYLOAD ACTIVE UNKNOWN

§ Identity

Operator
Country
US
Launch date
2026-03-08
Launch site
AFWTR
Launch vehicle
Mass (kg)
RCS (m²)

Purposes: comms

External: N2YO · Heavens-Above · Gunter

§ Orbital elements

Epoch: 2026-05-24T20:29:42.107712Z

Period
93.91 min
Inclination
97.2829°
Eccentricity
0.0001241
Mean motion
15.33459643 rev/d
Perigee alt
464.7 km
Apogee alt
466.3 km
Semi-major
6,843.6 km
B*
5.9651e-4
RAAN
105.4573°
Arg perigee
77.3146°
Mean anomaly
282.8236°
Rev number
1,325

§ Raw data

STARLINK-370171 68108U 26044H   26144.85395958  .00019241  00000+0  59651-3 0  99932 68108  97.2829 105.4573 0001241  77.3146 282.8236 15.33459643 13258

JSON: /api/v1/satellites/68108 · /tle

For live sub-satellite position, see the globe view (requires WebGL).

§ Visibility from observer

Set your observer location to see the next 7 days of passes ≥ 10°. The values pass through the URL so the page stays shareable.

No JS? Fill the form by hand. The geolocation button needs JavaScript.